Crystal River, FL

12:44 PM EST on December 05, 2019 (GMT -0500)
Crystal River

Weather History for KCGC - October, 2019

Change the Weather History Date:

Sunday, October 20, 2019

  Actual Average (KBKV) Record (KBKV)
Temperature  
Mean Temperature 74 °F -  
Max Temperature 80 °F 81 °F 91 °F (2005)
Min Temperature 66 °F 57 °F 35 °F (1996)
Cooling Degree Days 9    
Growing Degree Days 24 (Base 50)    
Moisture  
Dew Point 69 °F    
Average Humidity 80    
Maximum Humidity 100    
Minimum Humidity 61    
Precipitation  
Precipitation 0.01 in - - ()
Sea Level Pressure  
Sea Level Pressure 29.91 in    
Wind  
Wind Speed 3 mph (West)    
Max Wind Speed 12 mph    
Max Gust Speed 18 mph    
Visibility 10 miles    
Events      
Averages and records for this station are not official NWS values.
T = Trace of Precipitation, MM = Missing Value Source: NWS Daily Summary

Daily Weather History Graph

Daily Weather History Graph

Search for Another Location

Airport or City:

Astronomy

Oct. 20, 2019 Rise Set
Actual Time 7:34 AM EDT 6:55 PM EDT
Civil Twilight 7:10 AM EDT 7:19 PM EDT
Nautical Twilight 6:42 AM EDT 7:47 PM EDT
Astronomical Twilight 6:15 AM EDT 8:14 PM EDT
Moon No Moon Rise 1:42 PM EDT (10/20)
Length of Visible Light 12h 09m
Length of Day
11h 21m
Waning Gibbous, 59% of the Moon is Illuminated
Oct 20
Waning Gibbous
Oct 21
Last Quarter
Oct 27
New
Nov 4
First Quarter
Nov 12
Full

Hourly Weather History & Observations

Time (EDT) Temp. Heat Index Dew Point Humidity Pressure Visibility Wind Dir Wind Speed Gust Speed Precip Events Conditions
12:15 AM 77.0 °F - 71.6 °F 83% 29.82 in 10.0 mi Calm Calm - N/A   Scattered Clouds
12:35 AM 77.0 °F - 71.6 °F 83% 29.81 in 10.0 mi Calm Calm - N/A   Mostly Cloudy
12:55 AM 77.0 °F - 71.6 °F 83% 29.81 in 10.0 mi WSW 3.5 mph - N/A   Scattered Clouds
1:15 AM 77.0 °F - 71.6 °F 83% 29.81 in 10.0 mi Calm Calm - N/A   Scattered Clouds
1:35 AM 77.0 °F - 71.6 °F 83% 29.81 in 10.0 mi WSW 4.6 mph - N/A   Mostly Cloudy
1:55 AM 77.0 °F - 71.6 °F 83% 29.80 in 10.0 mi WSW 3.5 mph - N/A   Mostly Cloudy
2:15 AM 77.0 °F - 71.6 °F 83% 29.81 in 10.0 mi WSW 4.6 mph - N/A   Overcast
2:35 AM 77.0 °F - 71.6 °F 83% 29.81 in 10.0 mi Calm Calm - N/A   Overcast
2:55 AM 75.2 °F - 71.6 °F 89% 29.81 in 10.0 mi Calm Calm - N/A   Scattered Clouds
3:15 AM 75.2 °F - 71.6 °F 89% 29.81 in 10.0 mi Calm Calm - N/A   Mostly Cloudy
3:35 AM 77.0 °F - 71.6 °F 83% 29.81 in 10.0 mi Calm Calm - N/A   Overcast
3:55 AM 75.2 °F - 71.6 °F 89% 29.81 in 10.0 mi Calm Calm - N/A   Mostly Cloudy
4:15 AM 73.4 °F - 71.6 °F 94% 29.81 in 10.0 mi Calm Calm - N/A   Mostly Cloudy
4:35 AM 75.2 °F - 71.6 °F 89% 29.81 in 10.0 mi WSW 4.6 mph - N/A   Mostly Cloudy
4:55 AM 75.2 °F - 71.6 °F 89% 29.82 in 10.0 mi WSW 3.5 mph - N/A   Scattered Clouds
5:15 AM 77.0 °F - 71.6 °F 83% 29.82 in 10.0 mi WSW 4.6 mph - N/A   Mostly Cloudy
5:35 AM 77.0 °F - 71.6 °F 83% 29.83 in 10.0 mi WSW 3.5 mph - N/A   Mostly Cloudy
5:55 AM 77.0 °F - 71.6 °F 83% 29.84 in 10.0 mi Calm Calm - N/A   Overcast
6:15 AM 75.2 °F - 71.6 °F 89% 29.85 in 10.0 mi West 4.6 mph - N/A   Mostly Cloudy
6:35 AM 77.0 °F - 71.6 °F 83% 29.86 in 10.0 mi WSW 4.6 mph - N/A   Mostly Cloudy
6:55 AM 77.0 °F - 71.6 °F 83% 29.87 in 10.0 mi West 4.6 mph - N/A   Overcast
7:15 AM 77.0 °F - 71.6 °F 83% 29.87 in 10.0 mi WSW 3.5 mph - N/A   Mostly Cloudy
7:35 AM 77.0 °F - 71.6 °F 83% 29.87 in 10.0 mi West 5.8 mph - N/A   Mostly Cloudy
7:55 AM 77.0 °F - 71.6 °F 83% 29.88 in 10.0 mi West 4.6 mph - 0.01 in   Mostly Cloudy
8:15 AM 77.0 °F - 71.6 °F 83% 29.89 in 10.0 mi WNW 6.9 mph - N/A   Mostly Cloudy
8:35 AM 77.0 °F - 71.6 °F 83% 29.90 in 10.0 mi NW 6.9 mph - N/A   Scattered Clouds
8:55 AM 75.2 °F - 71.6 °F 89% 29.91 in 10.0 mi NW 6.9 mph - N/A   Mostly Cloudy
9:15 AM 75.2 °F - 69.8 °F 83% 29.93 in 10.0 mi WNW 4.6 mph - N/A   Scattered Clouds
9:35 AM 77.0 °F - 71.6 °F 83% 29.93 in 10.0 mi NW 4.6 mph - N/A   Clear
9:55 AM 77.0 °F - 69.8 °F 78% 29.95 in 10.0 mi NW 4.6 mph - N/A   Scattered Clouds
10:15 AM 77.0 °F - 68.0 °F 74% 29.96 in 10.0 mi WNW 8.1 mph - N/A   Scattered Clouds
10:35 AM 77.0 °F - 68.0 °F 74% 29.96 in 10.0 mi NW 3.5 mph - N/A   Clear
10:55 AM 77.0 °F - 69.8 °F 78% 29.96 in 10.0 mi WNW 8.1 mph 16.1 mph N/A   Clear
11:15 AM 77.0 °F - 68.0 °F 74% 29.96 in 10.0 mi WNW 8.1 mph 16.1 mph N/A   Clear
11:35 AM 78.8 °F - 68.0 °F 69% 29.97 in 10.0 mi West 10.4 mph - N/A   Clear
11:55 AM 78.8 °F - 68.0 °F 69% 29.97 in 10.0 mi WNW 8.1 mph - N/A   Clear
12:15 PM 78.8 °F - 68.0 °F 69% 29.97 in 10.0 mi WNW 6.9 mph - N/A   Clear
12:35 PM 78.8 °F - 68.0 °F 69% 29.97 in 10.0 mi WNW 8.1 mph - N/A   Clear
1:15 PM 80.6 °F 83.2 °F 68.0 °F 65% 29.96 in 10.0 mi WNW 8.1 mph - N/A   Clear
1:35 PM 80.6 °F 83.2 °F 68.0 °F 65% 29.96 in 10.0 mi WNW 9.2 mph - N/A   Clear
1:55 PM 80.6 °F 83.2 °F 68.0 °F 65% 29.94 in 10.0 mi WNW 6.9 mph 18.4 mph N/A   Clear
2:15 PM 80.6 °F 82.7 °F 66.2 °F 61% 29.94 in 10.0 mi WNW 8.1 mph - N/A   Clear
2:35 PM 80.6 °F 82.7 °F 66.2 °F 61% 29.94 in 10.0 mi WNW 6.9 mph - N/A   Clear
2:55 PM 80.6 °F 82.7 °F 66.2 °F 61% 29.94 in 10.0 mi West 11.5 mph - N/A   Clear
3:35 PM 80.6 °F 82.7 °F 66.2 °F 61% 29.93 in 10.0 mi WNW 4.6 mph - N/A   Clear
3:55 PM 80.6 °F 82.7 °F 66.2 °F 61% 29.93 in 10.0 mi WNW 8.1 mph - N/A   Clear
4:15 PM 80.6 °F 82.7 °F 66.2 °F 61% 29.93 in 10.0 mi West 6.9 mph - N/A   Clear
4:35 PM 80.6 °F 82.7 °F 66.2 °F 61% 29.93 in 10.0 mi West 6.9 mph - N/A   Clear
4:55 PM 80.6 °F 82.7 °F 66.2 °F 61% 29.92 in 10.0 mi West 8.1 mph - N/A   Clear
5:15 PM 80.6 °F 82.7 °F 66.2 °F 61% 29.93 in 10.0 mi West 4.6 mph - N/A   Clear
5:35 PM 78.8 °F - 66.2 °F 65% 29.93 in 10.0 mi West 6.9 mph - N/A   Clear
5:55 PM 78.8 °F - 66.2 °F 65% 29.94 in 10.0 mi West 4.6 mph - N/A   Clear
6:15 PM 78.8 °F - 66.2 °F 65% 29.94 in 10.0 mi West 6.9 mph - N/A   Clear
6:35 PM 77.0 °F - 66.2 °F 69% 29.94 in 10.0 mi WSW 3.5 mph - N/A   Clear
6:55 PM 73.4 °F - 68.0 °F 83% 29.94 in 10.0 mi Calm Calm - N/A   Clear
7:15 PM 71.6 °F - 68.0 °F 88% 29.94 in 10.0 mi Calm Calm - N/A   Clear
7:35 PM 71.6 °F - 68.0 °F 88% 29.94 in 10.0 mi Calm Calm - N/A   Clear
7:55 PM 71.6 °F - 68.0 °F 88% 29.94 in 10.0 mi Calm Calm - N/A   Clear
8:15 PM 69.8 °F - 66.2 °F 88% 29.95 in 10.0 mi Calm Calm - N/A   Clear
8:35 PM 69.8 °F - 66.2 °F 88% 29.96 in 10.0 mi Calm Calm - N/A   Clear
8:55 PM 69.8 °F - 68.0 °F 94% 29.96 in 10.0 mi Calm Calm - N/A   Clear
9:15 PM 68.0 °F - 68.0 °F 100% 29.96 in 10.0 mi Calm Calm - N/A   Clear
9:35 PM 68.0 °F - 66.2 °F 94% 29.96 in 10.0 mi Calm Calm - N/A   Clear
9:55 PM 68.0 °F - 66.2 °F 94% 29.97 in 10.0 mi Calm Calm - N/A   Clear
10:15 PM 68.0 °F - 66.2 °F 94% 29.97 in 10.0 mi Calm Calm - N/A   Clear
10:35 PM 68.0 °F - 66.2 °F 94% 29.98 in 10.0 mi Calm Calm - N/A   Clear
10:55 PM 68.0 °F - 66.2 °F 94% 29.99 in 10.0 mi Calm Calm - N/A   Clear
11:15 PM 68.0 °F - 66.2 °F 94% 29.99 in 10.0 mi Calm Calm - N/A   Clear
11:35 PM 68.0 °F - 66.2 °F 94% 29.99 in 10.0 mi Calm Calm - N/A   Clear
11:55 PM 66.2 °F - 64.4 °F 94% 29.98 in 7.0 mi Calm Calm - N/A   Clear